SCP
0 0 0 0 0 0 0 0 0 0 0 0 0 0 0 0 0 0 0 0 0 0 0 0 0 0 0 0 0 0 0 0 0 0 0 0 0 0 0 0 0 0 0 0
0 0 0 0 0 0 0 0 0 0 0 0 0 0 0 0 0 0 0 0 0 0 0 0 0 0 0 0 0 0 0 0 0 0 0 0 0 0 0 0 0 0 0 0
0 0 0 0 0 0 0 0 0 0 0 0 0 0 0 0 0 0 0 0 0 0 -0 0 0 0 0 0 0 0 0 0 0 0 0 0 0 0 0 0 0 0 0 0
0 0 0 0 0 0 0 0 0 0 0 0 0 0 0 0 0 0 0 0 0 -0 -0 -0 0 0 0 0 0 0 0 0 0 0 0 0 0 0 0 0 0 0 0 0
0 0 0 0 0 0 0 0 0 0 0 0 0 0 0 0 0 0 0 0 0 0 0 0 0 0 0 0 0 0 0 0 0 0 0 0 0 0 0 0 0 0 0 0
0 0 0 0 0 0 0 0 0 0 0 0 0 0 0 0 0 0 0 0 0 0 0 0 0 0 0 0 0 0 0 0 0 0 0 0 0 0 0 0 0 0 0 0
0 0 0 0 0 0 0 0 0 0 0 0 0 0 0 0 0 0 0 0 0 0 0 0 0 0 0 0 0 0 0 0 0 0 0 0 0 0 0 0 0 0 0 0
0 0 0 0 0 0 0 0 0 0 0 0 0 0 0 0 0 0 0 0 0 0 0 0 0 0 0 0 0 0 0 0 0 0 0 0 0 0 0 0 0 0 0 0
0 0 0 0 0 0 0 0 0 0 0 0 0 0 0 0 0 0 0 0 0 0 0 0 0 0 0 0 0 0 0 0 0 0 0 0 0 0 0 0 0 0 0 0
0 0 0 0 0 0 0 0 0 0 0 0 0 0 0 0 0 0 0 0 0 0 0 0 0 0 0 0 0 0 0 0 0 0 0 0 0 0 0 0 0 0 0 0
0 0 0 0 0 0 0 0 0 0 0 0 0 0 0 0 0 0 0 0 0 0 0 0 0 0 0 0 0 0 0 0 0 0 0 0 0 0 0 0 0 0 0 0
0 0 0 0 0 0 0 0 0 0 0 0 0 0 0 0 0 0 0 0 0 0 0 0 0 0 0 0 0 0 0 0 0 0 0 0 0 0 0 0 0 0 0 0
0 0 0 0 0 0 0 0 0 0 0 0 0 0 0 0 0 0 0 0 0 0 0 0 0 0 0 0 0 0 0 0 0 0 0 0 0 0 0 0 0 0 0 0
0 0 0 0 0 0 0 0 0 0 0 0 0 0 0 0 0 0 0 0 0 0 0 0 0 0 0 0 0 0 0 0 0 0 0 0 0 0 0 0 0 0 0 0
0 0 0 0 0 0 0 0 0 0 0 0 0 0 0 0 0 0 0 0 0 0 0 0 0 0 0 0 0 0 0 0 0 0 0 0 0 0 0 0 0 0 0 0
0 0 0 0 0 0 0 0 0 0 0 0 0 0 0 0 0 0 0 0 0 0 0 0 0 0 0 0 0 0 0 0 0 0 0 0 0 0 0 0 0 0 0 0
-0 -0 0 0 0 0 0 0 0 0 0 0 0 0 0 0 0 0 0 0 0 0 0 0 0 0 0 0 0 0 0 0 0 0 0 0 0 0 0 0 0 0 0 0
-0 -0 -0 0 0 0 0 0 0 0 0 0 0 0 0 0 0 0 0 0 0 0 0 0 0 0 0 0 0 0 0 0 0 0 0 0 0 0 0 0 0 0 0 0
-0 -0 -0 -0 0 0 0 0 0 -0 0 0 0 0 0 0 0 0 0 0 0 0 0 0 0 0 0 0 0 0 0 0 0 0 0 0 0 0 0 0 0 0 0 0
-0 -0 -0 -0 -0 -0 -0 -0 -0 -0 -0 0 0 0 0 0 0 0 0 0 0 0 0 0 0 0 0 0 0 0 0 0 0 0 0 0 0 0 0 0 0 0 0 0
0 -0 -0 -0 -0 -0 0 0 0 0 -0 0 0 0 0 0 0 0 0 0 0 0 0 0 0 0 0 0 0 0 0 0 0 0 0 0 0 0 0 0 0 0 0 0
0 0 -0 -0 -0 0 0 0 0 0 0 0 0 0 0 0 0 0 0 0 0 0 0 0 0 0 0 0 0 0 0 0 0 0 0 0 0 0 0 0 0 0 0 0
0 0 -0 -0 0 0 0 0 0 0 0 0 0 0 0 0 0 0 0 0 0 0 0 0 0 0 0 0 0 0 0 0 0 0 0 0 0 0 0 0 0 0 0 0
0 0 0 0 0 0 0 0 0 0 0 0 0 0 0 0 0 0 0 0 0 0 0 0 0 0 0 0 0 0 0 0 0 0 0 0 0 0 0 0 0 0 0 0
0 0 0 0 0 0 0 0 0 0 0 0 0 0 0 0 0 0 0 0 0 0 0 0 0 0 0 0 0 0 0 0 0 0 0 0 0 0 0 0 0 0 0 0
0 0 0 0 0 0 0 0 0 0 0 0 0 0 0 0 0 0 0 0 0 0 0 0 0 0 0 0 0 0 0 0 0 0 0 0 0 0 0 0 0 0 0 0
0 0 0 0 0 0 0 0 0 0 0 0 0 0 0 0 0 0 0 0 0 0 0 0 0 0 0 0 0 0 0 0 0 0 0 0 0 0 0 0 0 0 0 0
Wind_Speed
10 10 10 12 13 12 14 14 12 12 14 15 13 11 10 9 8 8 7 7 7 7 6 5 5 4 4 4 4 4 4 4 5 5 5 5 5 4 4 4 4 4 3 3
7 7 9 14 17 17 17 18 19 19 20 15 11 8 8 8 8 8 8 8 7 7 7 6 5 5 4 4 4 4 4 4 4 4 5 5 4 4 4 4 4 3 3 3
6 5 8 12 12 14 12 12 12 15 14 8 8 8 9 8 8 9 8 8 7 7 7 6 5 5 5 4 3 4 4 4 4 4 4 4 4 4 3 4 3 3 3 3
5 5 10 4 2 5 10 11 13 14 12 10 10 9 9 9 9 9 8 7 7 6 6 6 5 4 4 3 3 4 4 4 4 4 4 4 4 4 3 3 3 3 3 3
4 6 11 8 4 5 7 8 9 13 13 10 7 7 7 5 6 8 8 7 6 6 5 5 4 4 4 4 4 4 4 4 4 4 4 4 4 4 3 3 3 3 3 3
5 6 9 3 3 3 3 6 3 7 7 5 3 5 4 3 5 7 7 6 5 5 4 5 4 4 5 5 5 5 5 4 4 4 4 4 4 4 3 3 3 2 2 2
10 9 11 6 4 5 5 2 2 4 5 5 6 7 7 7 7 7 7 6 5 5 5 5 4 5 6 6 6 5 4 4 4 4 4 4 3 3 3 2 2 2 2 2
8 10 11 5 8 8 5 2 2 4 5 7 9 9 9 9 9 8 7 6 6 5 5 4 5 6 7 7 5 4 4 4 4 4 3 3 3 3 3 2 2 2 2 2
10 10 4 5 8 6 4 6 7 7 7 8 10 10 10 10 10 9 8 7 6 6 6 5 5 6 8 6 4 4 4 4 4 4 3 3 3 3 2 2 2 2 2 2
10 13 13 12 12 12 11 12 11 10 10 10 11 12 12 11 10 9 8 7 6 6 6 6 6 7 7 5 4 5 5 4 4 3 3 3 3 2 2 2 2 2 2 2
13 14 13 13 12 11 11 11 11 11 10 10 11 12 12 11 10 9 8 7 6 6 7 7 6 6 6 5 5 5 5 4 4 4 3 3 3 3 3 3 3 3 2 2
13 12 10 11 9 9 10 10 10 10 10 10 10 11 11 11 9 9 8 7 6 7 7 7 6 6 5 5 5 5 5 4 4 3 3 3 3 3 4 4 4 5 5 4
16 13 13 14 12 11 11 12 11 10 11 11 10 10 10 10 9 8 8 7 7 7 7 6 6 6 5 5 5 6 5 4 3 3 3 3 3 3 3 3 5 5 5 5
13 12 13 13 12 11 11 11 10 9 9 9 9 9 9 9 8 8 8 7 6 6 6 6 6 6 5 5 6 6 5 5 4 4 3 3 3 3 3 3 2 2 4 5
12 11 12 11 10 9 8 7 7 8 8 8 7 7 8 8 8 8 7 5 5 5 6 6 6 6 4 5 6 6 5 4 4 4 3 3 3 3 3 3 3 2 2 2
8 8 9 9 10 10 8 8 8 9 8 8 7 7 8 8 8 7 5 5 5 6 6 6 6 5 4 5 6 5 5 6 5 4 3 3 3 3 3 3 3 3 3 2
7 8 7 8 9 9 9 8 8 8 8 8 8 7 7 6 6 6 5 5 6 6 6 6 6 4 5 6 6 4 4 5 6 4 4 4 4 4 4 3 3 3 3 3
9 10 9 9 9 9 9 8 8 8 8 8 8 7 6 6 7 6 5 4 4 5 6 6 5 5 5 6 5 4 4 4 4 4 4 4 4 4 4 4 4 4 3 3
7 8 8 8 8 7 7 8 8 8 7 7 7 7 7 7 6 5 4 4 5 6 5 4 6 6 6 6 6 4 4 4 4 4 4 5 5 4 4 4 4 4 3 3
5 5 6 6 6 6 7 7 7 7 7 6 6 7 7 6 5 4 5 6 6 5 4 3 4 5 5 6 6 4 5 5 5 4 4 4 4 4 4 4 4 4 4 4
6 5 5 6 6 6 6 7 7 7 7 6 6 7 7 6 5 4 5 5 5 4 4 5 4 4 4 5 6 4 5 5 5 5 5 4 4 5 4 4 4 4 4 4
6 6 7 6 7 7 7 6 6 7 7 7 6 6 6 6 5 5 6 6 5 4 4 3 3 4 5 5 4 4 5 5 4 4 4 4 4 5 5 5 4 4 4 4
7 7 8 7 7 7 8 7 7 6 7 7 7 7 7 6 5 5 5 4 3 4 4 4 5 6 7 5 4 4 5 5 5 5 5 4 5 4 5 5 4 4 4 4
8 8 8 7 6 7 8 8 7 6 6 6 6 6 6 5 5 5 4 4 5 5 4 5 7 7 6 4 4 4 4 5 5 5 5 4 4 4 4 4 4 4 4 5
8 7 7 7 7 7 8 7 6 6 6 5 6 6 5 5 5 4 3 4 5 5 4 4 6 6 5 3 4 4 4 4 5 4 5 4 4 4 4 4 4 4 4 4
8 8 8 8 7 7 6 5 6 5 5 5 5 4 4 4 4 4 4 4 5 5 4 3 4 4 4 4 4 4 4 4 5 5 5 5 5 5 4 4 5 4 4 4
8 7 7 7 7 6 6 6 6 6 6 5 5 5 4 4 4 4 5 4 4 4 4 3 3 3 3 4 4 4 4 4 4 4 4 4 4 4 4 5 4 4 4 4
Wind_Direction
265 273 266 260 252 234 228 235 246 258 264 273 284 289 286 283 281 278 273 268 261 255 252 252 256 262 268 276 283 289 292 297 305 311 316 318 320 320 317 313 309 304 298 290
270 263 265 266 255 243 241 242 248 262 271 278 288 284 275 274 274 271 269 268 265 256 252 250 251 256 262 269 278 282 285 292 302 308 312 313 316 317 317 319 321 322 319 310
272 297 289 264 246 225 221 223 229 243 255 274 279 278 279 280 275 268 272 273 266 258 249 247 246 246 250 257 263 268 277 287 296 301 303 307 311 315 318 320 321 325 330 328
282 294 250 251 123 213 224 239 231 246 262 271 281 291 285 274 269 270 275 275 269 262 255 250 245 241 245 246 247 255 268 280 288 291 294 301 304 307 310 309 310 319 324 321
249 265 275 277 229 201 217 258 233 238 254 269 289 288 272 261 255 264 275 275 271 264 257 249 239 231 233 239 243 250 261 271 278 280 284 291 293 296 299 298 301 310 314 316
229 248 255 272 137 162 213 261 210 218 245 265 274 279 303 325 290 280 278 275 269 266 255 242 230 217 224 236 241 247 254 260 266 267 270 275 280 284 288 288 292 300 304 308
231 245 264 267 154 164 226 287 146 218 252 252 252 274 305 306 295 288 286 281 272 262 249 240 221 212 225 235 242 249 252 254 257 258 262 267 271 274 276 275 279 284 292 300
209 225 249 181 163 206 258 320 245 261 269 268 271 282 288 291 290 286 284 279 269 260 255 242 217 215 229 238 245 245 244 246 247 253 257 259 262 266 265 265 271 276 283 296
213 231 266 188 218 250 279 273 276 278 280 280 279 281 286 289 289 284 280 276 265 256 256 245 221 219 234 241 234 234 238 241 243 246 248 249 250 251 249 254 263 270 272 284
251 257 261 263 263 267 266 268 276 279 279 276 275 280 284 284 285 282 277 271 262 252 250 247 231 228 236 236 222 227 236 239 237 238 242 241 241 243 243 242 251 262 269 277
253 267 277 265 255 260 268 268 271 274 273 270 271 275 280 282 281 278 274 266 255 246 247 250 239 233 231 223 214 223 233 235 231 232 236 234 235 240 243 240 250 259 262 266
251 258 260 274 276 271 272 272 271 276 278 271 266 273 279 278 277 275 272 264 255 249 248 249 240 234 226 214 212 218 225 228 228 227 230 236 242 250 247 252 257 261 273 277
257 268 270 277 278 273 271 274 276 274 274 277 276 274 275 275 275 274 270 262 254 253 252 247 239 235 223 206 208 217 227 229 227 227 227 230 235 244 254 240 237 249 259 265
256 264 269 268 270 273 274 277 280 278 276 275 278 278 275 274 274 269 264 260 257 256 252 244 237 235 221 204 207 217 226 229 229 230 229 229 231 236 242 248 246 243 242 252
256 253 259 272 276 276 277 277 276 277 280 279 275 273 272 271 270 270 270 265 255 249 246 240 238 237 214 203 209 216 218 220 221 226 225 227 228 230 235 242 250 255 255 248
262 261 259 263 268 273 275 271 270 275 279 281 281 276 273 271 271 273 268 254 242 243 243 238 241 237 209 204 210 216 220 220 216 218 218 220 220 223 228 233 239 244 248 255
252 259 259 263 266 269 268 267 267 273 277 277 277 278 276 273 271 267 263 254 249 251 248 243 245 233 210 208 210 214 216 212 209 215 218 218 220 223 227 231 237 245 249 249
247 256 257 260 264 268 271 269 267 268 269 272 277 274 269 264 263 266 268 265 259 257 249 244 242 227 216 212 210 211 209 209 207 212 213 214 219 224 227 231 237 245 252 245
266 265 267 266 264 263 265 266 265 266 268 267 266 265 264 262 261 263 262 253 250 257 257 239 227 222 221 213 203 204 204 205 208 211 213 215 218 220 223 229 236 241 243 241
279 278 277 277 275 267 265 268 269 269 267 259 258 263 266 265 260 255 253 251 248 252 255 244 230 227 224 214 202 204 204 207 209 210 209 211 215 219 221 227 233 237 238 239
283 283 282 282 283 278 270 268 269 269 270 260 253 256 261 266 259 250 251 262 262 244 242 236 230 228 219 207 199 203 205 209 210 210 211 213 215 220 222 225 229 233 235 238
280 278 278 278 280 282 279 273 268 268 268 263 257 255 257 260 257 250 245 250 261 248 242 238 231 222 215 207 205 204 207 211 214 215 215 216 217 220 224 226 228 230 233 235
275 273 273 273 274 280 283 278 269 263 262 260 256 252 251 254 253 252 262 253 248 244 244 242 233 222 213 210 209 207 208 212 216 219 221 220 221 223 227 228 229 229 232 234
273 272 272 276 278 277 277 277 272 265 262 261 256 250 248 254 256 247 250 253 250 250 250 239 227 221 216 213 211 211 212 214 217 220 222 222 223 224 227 228 229 230 231 233
268 266 266 266 267 267 268 271 271 269 268 265 262 255 247 242 245 253 250 248 245 249 253 238 227 223 221 216 213 216 218 219 219 220 220 220 222 224 227 227 228 229 230 231
264 262 260 257 260 264 266 265 264 265 264 266 269 262 252 246 241 243 244 244 242 245 248 241 230 221 220 217 218 221 224 226 226 226 223 222 222 224 226 228 231 231 233 234
262 262 262 262 260 254 251 251 254 256 253 252 261 261 250 242 237 236 238 240 239 240 240 236 230 226 222 219 221 225 227 228 225 225 223 222 222 223 225 226 230 231 233 233